Voltar ao catálogo

ONEWEB-0584

AtivoComunicaçõesPO
NORAD 54651·PAYLOAD·🇬🇧 United Kingdom

Lançado Dec 8, 2022 de Cape Canaveral Space Force Station

Loading…

Próximas Passagens (próximas 24 horas)

TLE

AtualizadoSource: CelesTrak SupGP

Época: Sep 14, 2026, 20:51 UTC

1 54651C 22166K   26257.86889307  .00000870  00000+0  21081-2 0  2574
2 54651  87.9269 226.1271 0002135  85.3760 300.7841 13.21823130    13

Acompanhe ONEWEB-0584 em tempo real com AllMySat

Download on the App Store